Погода в Дырестуй

Россия / Республика Бурятия     50°39′14″N   106°03′55″E
темп.,
°C
ветер,
м/с
пор.,
м/с
влажн.,
%
обл.,
%
осадки,
мм/ч
давл.,
гПа
погр.,
м
17 сентября, пт
пт1723:00+11с3365100 0.2 101216
02:00+9ссв347458 0.3 101338
05:00+8ссв3374100 0.0 101445
08:00+10с347464 0.0 1015138
11:00+15св455514 0.0 1014746
14:00+17св444859 0.0 10121129
17:00+17ссв3348100 0.0 1011989
20:00+12с336274 0.0 101221
18 сентября, сб
сб1823:00+11с3371100 0.0 101347
02:00+11ссв3373100 0.0 101343
05:00+9с228289 0.0 101311
08:00+10св12745 0.0 101476
11:00+15вюв11535 0.0 1013641
14:00+18ююв22450 0.0 10111101
17:00+19ююв11430 0.0 10101085
20:00+12св22665 0.0 101111
19 сентября, вс
вс1923:00+10ссв117557 0.0 101210
02:00+10ссв117699 0.0 101210
05:00+8с017945 0.0 101210
08:00+12ю117053 0.0 101330
11:00+17юв11547 0.0 1012593
14:00+20ююв114549 0.0 10101055
17:00+20вюв1142100 0.0 10091012
20:00+14ссв33662 0.0 101016
20 сентября, пн
пн2023:00+11с11775 0.0 101011
02:00+11ююз1179100 0.1 100911
05:00+9ююз11821 0.0 100810
08:00+12ююз12760 0.0 100862
11:00+17ю34590 0.0 1006631
14:00+21ю56455 0.0 10031261
17:00+22ю57440 0.0 10011327
20:00+14юв22755 0.0 100111
21 сентября, вт
вт2123:00+12ююв128155 0.0 100111
02:00+11с489271 1.2 1005234
05:00+9ссв3884100 1.2 1009559
08:00+9ссв3780100 1.3 1011735
11:00+9ссв3666100 0.0 1011581
14:00+13св44505 0.0 1007935
17:00+13ссв2354100 0.1 1005918
20:00+9ссз1384100 2.5 1007173